DECAYED

STARLINK-1363, 45568 (Decayed)

Orbit data source: Space-Track

STARLINK-1363, 45568 was a payload satellite owned by SpaceX/Seattle (US) in LEO that was launched on Wed, 22 Apr 2020 UTC via an FALCON 9 launch vehicle from the Air Force Eastern Test Range (AFETR). Payload-class satellites include a variety of spacecraft equipped with specific instruments for various scientific and technological missions. These include communications satellites like Starlink; space stations such as the ISS; scientific satellites like the Hubble; Earth observation satellites from companies like Planet Labs, Umbra, and HawkEye 360; GPS; miniature CubeSats for education and research; and military/defense satellites.

Not visible in the next 10 days
Identifier
45568, 2020-025AP
Orbit
Decayed
Country
Flag of USUS
Related business
Manufacturer
SpaceX/Seattle
Mission
Decayed Commercial Communications
Bus & Motor
STARLINK, Unknown motor
Mass
260 kg wet, ~248 kg dry
Launch date (UTC)
2020-04-22 (6 years ago)
Launch vehicle
FALCON 9
Launch site
Air Force Eastern Test Range (AFETR)
Object type
Payload
Rocket body
Debris
Shape & HBR
Box + 1 Pan, 10.1 m
Radar Cross Section
13.562 m², Large (>1 m²)

Expand to show TLE details & history
Last TLE update: 3 months ago

TLE from 3 months ago
0 STARLINK-1363
1 45568U 20025AP  26152.73507565  .09883348  12554-4  24468-3 0  9992
2 45568  53.0178 328.0597 0007364 287.1115  72.9127 16.45563244339444
Epoch: 2026-06-01T17:38Z
TLE epoch observation values (Epoch: 2026-06-01T17:38:30.536Z)
Latitude
0.00002°
Longitude
173.21434°
Altitude
150.564 km
Speed
7.818 km/s
True Right ascension
21h 52m 14s
True Declination
0° 00' 00"
Sunlit
Object was in daylight at epoch
Visualization orbit readout
Latitude
Unknown
Longitude
Unknown
Altitude
Unknown
Speed
Unknown
Apparent Right ascension
Unknown
Apparent Declination
Unknown
Sunlit
N/A
Visualization observer readout
Local Sidereal Time
22:00:03
Azimuth
Unknown
Elevation
Unknown
Doppler factor
Unknown
Orbital elements
Apogee altitude
156.146 km
Perigee altitude
146.53 km
Semi-major axis
6,529.475 km
Eccentricity
0.00074
Inclination
53.0178°
RAAN
328.0597°
Arg. of periapsis
287.1115°
True anomaly
72.99338°
Mean anomaly
72.9127°
Eccentric anomaly
72.95304°
Mean motion
4.11364 °/min
Orbital period
87.51 mins
BSTAR
0.00024468
Loading maneuver chart data...
Computing Atmospheric mass density...

Documentation

Showing up to 5 results
|